Location: Caltech
(34.1382°N, 118.1253°W)
Time: 12:10:49
(UTC-07:00)

Tiros 1 despin weight - Visible Passes

Search period start: 24 June 2017 00:00
Search period end: 04 July 2017 00:00
Orbit: 595 x 643 km, 48.2° (Epoch: 23 June)

Date Brightness Start Highest point End Pass type
(mag) Time Alt. Az. Time Alt. Az. Time Alt. Az.
24 Jun ? 20:51:35 10° NNW 20:54:28 17° NNE 20:57:20 10° NE visible
24 Jun ? 22:32:31 10° NW 22:36:50 51° NNE 22:37:15 49° NE visible
25 Jun ? 21:08:20 10° NNW 21:11:54 23° NNE 21:15:27 10° ENE visible
25 Jun ? 22:49:27 10° NW 22:53:13 63° WNW 22:53:13 63° WNW visible
26 Jun ? 21:25:04 10° NW 21:29:12 36° NNE 21:32:09 17° E visible
26 Jun ? 23:06:41 10° WNW 23:09:13 28° W 23:09:13 28° W visible
27 Jun ? 21:41:53 10° NW 21:46:20 69° NE 21:48:13 33° ESE visible
27 Jun ? 23:24:39 10° W 23:25:17 12° W 23:25:17 12° W visible
28 Jun ? 21:58:56 10° WNW 22:03:17 57° SW 22:04:20 44° S visible
29 Jun ? 20:34:24 10° NW 20:38:44 48° NNE 20:43:00 10° ESE visible
29 Jun ? 22:16:25 10° WNW 22:20:06 26° SW 22:20:31 25° SW visible
30 Jun ? 20:51:19 10° NW 20:55:47 87° SW 20:59:41 13° SE visible
30 Jun ? 22:35:18 10° WSW 22:36:47 11° SW 22:36:47 11° SW visible
01 Jul ? 21:08:30 10° WNW 21:12:40 40° SW 21:16:00 15° SSE visible
02 Jul ? 21:26:21 10° W 21:29:25 18° SW 21:32:23 10° S visible
